Regional Weather Roundup
Issued by NWS

Home | Current Version | Previous Version | Graphics & Text | Print | Product List | Glossary On
Versions: 1 2 3 4 5 6 7 8 9 10 11 12 13 14 15 16 17 18 19 20 21 22 23 24 25 26 27 28 29 30 31 32 33 34 35 36 37 38 39 40 41 42 43 44 45 46 47 48 49 50
000
ASUS43 KMKX 221821
RWRWI

WISCONSIN REGIONAL WEATHER ROUNDUP
NATIONAL WEATHER SERVICE MILWAUKEE/SULLIVAN WI
100 PM CDT FRI MAY 22 2015

NOTE: "FAIR" INDICATES FEW OR NO CLOUDS BELOW 12,000 FEET WITH NO
SIGNIFICANT WEATHER AND/OR OBSTRUCTIONS TO VISIBILITY.

WIZ001-002-006>008-014>016-023>028-221900-
NORTHWEST WISCONSIN

CITY           SKY/WX    TMP DP  RH WIND       PRES   REMARKS
SUPERIOR ARPT  SUNNY     64  39  40 E7        30.21S
6HR MIN TEMP:  40; 6HR MAX TEMP:  64;

ASHLAND        SUNNY     66  33  29 E3        30.22S
6HR MIN TEMP:  42; 6HR MAX TEMP:  67;

HAYWARD        SUNNY     66  27  23 E6        30.22S
6HR MIN TEMP:  38; 6HR MAX TEMP:  67;

SIREN          SUNNY     69  31  24 E5        30.22S
6HR MIN TEMP:  40; 6HR MAX TEMP:  69;

CUMBERLAND     SUNNY     64  32  29 S6        30.23S
RICE LAKE      SUNNY     67  29  25 W6        30.24S
6HR MIN TEMP:  44; 6HR MAX TEMP:  67;

CHETEK         SUNNY     66  33  29 SW7       30.23S
6HR MIN TEMP:  42; 6HR MAX TEMP:  66;

LADYSMITH      SUNNY     65  31  27 SW3       30.24R
6HR MIN TEMP:  40; 6HR MAX TEMP:  65;

EAU CLAIRE     SUNNY     69  33  26 VRB7      30.22F
6HR MIN TEMP:  45; 6HR MAX TEMP:  69;

MENOMONIE      SUNNY     68  29  23 CALM      30.22F
6HR MIN TEMP:  46; 6HR MAX TEMP:  68;

NEW RICHMOND   SUNNY     68  32  26 N5        30.23S
6HR MIN TEMP:  45; 6HR MAX TEMP:  68;

OSCEOLA        SUNNY     68  36  30 SW3       30.25S
6HR MIN TEMP:  42; 6HR MAX TEMP:  68;

$$

WIZ003>005-009-010-017-018-221900-
NORTH CENTRAL WISCONSIN

CITY           SKY/WX    TMP DP  RH WIND       PRES   REMARKS
MANITOWISH WTR SUNNY     61  28  28 NW9       30.21S
6HR MIN TEMP:  37; 6HR MAX TEMP:  61;

ARBOR VITAE    SUNNY     62  25  24 NW8       30.22R
6HR MIN TEMP:  41; 6HR MAX TEMP:  62;

WOODRUFF       SUNNY     62  25  24 NW8       30.22R
6HR MIN TEMP:  41; 6HR MAX TEMP:  62;

RHINELANDER    SUNNY     62  25  24 VRB7G16   30.22S
6HR MIN TEMP:  40; 6HR MAX TEMP:  63;

EAGLE RIVER    SUNNY     62  16  17 N7        30.20F
6HR MIN TEMP:  39; 6HR MAX TEMP:  63;

LAND O LAKES   SUNNY     63  14  15 CALM      30.22S
6HR MIN TEMP:  37; 6HR MAX TEMP:  63;

PHILLIPS       SUNNY     64  33  31 NE7       30.21S
6HR MIN TEMP:  37; 6HR MAX TEMP:  64;

TOMAHAWK       SUNNY     63  28  26 W12G17    30.22R
6HR MIN TEMP:  34; 6HR MAX TEMP:  64;

MEDFORD        SUNNY     64  31  29 W9G17     30.23R
6HR MIN TEMP:  41; 6HR MAX TEMP:  65;

MERRILL        SUNNY     64  32  29 CALM      30.22S
$$

WIZ029-030-035-036-043>047-221900-
CENTRAL WISCONSIN

CITY           SKY/WX    TMP DP  RH WIND       PRES   REMARKS
WAUSAU         SUNNY     63  31  30 VRB3      30.21R
6HR MIN TEMP:  41; 6HR MAX TEMP:  64;

MOSINEE        SUNNY     64  34  32 VRB6      30.24R
MARSHFIELD     SUNNY     66  34  30 W7        30.23S
6HR MIN TEMP:  46; 6HR MAX TEMP:  67;

STEVENS POINT  SUNNY     64  30  28 W7        30.23S
6HR MIN TEMP:  40; 6HR MAX TEMP:  64;

WAUPACA        SUNNY     68  26  20 CALM      30.23S
6HR MIN TEMP:  44; 6HR MAX TEMP:  68;

WAUTOMA        SUNNY     68  30  24 VRB5      30.24S
6HR MIN TEMP:  42; 6HR MAX TEMP:  69;

WISC RAPIDS    SUNNY     66  28  24 VRB5      30.24S
6HR MIN TEMP:  46; 6HR MAX TEMP:  67;

CAMP DOUGLAS   MOSUNNY   68  37  32 W7        30.21F
$$

WIZ011>013-019>022-031-037>040-048>050-221900-
NORTHEAST WISCONSIN

CITY           SKY/WX    TMP DP  RH WIND       PRES   REMARKS
ANTIGO         SUNNY     62  31  31 NW6       30.22R
SHAWANO        SUNNY     66  32  27 SW6       30.22S
6HR MIN TEMP:  43; 6HR MAX TEMP:  66;

OCONTO         SUNNY     60  28  29 SE9       30.23S
6HR MIN TEMP:  41; 6HR MAX TEMP:  60;

STURGEON BAY   SUNNY     55  32  41 E8        30.28R
6HR MIN TEMP:  45; 6HR MAX TEMP:  55;

GREEN BAY      SUNNY     64  29  26 VRB6      30.24R
6HR MIN TEMP:  45; 6HR MAX TEMP:  65;

MANITOWOC      SUNNY     51  32  48 SE10      30.27R
6HR MIN TEMP:  44; 6HR MAX TEMP:  56;

APPLETON       SUNNY     63  30  29 SE10      30.24
CLINTONVILLE   SUNNY     66  28  24 NW8       30.22S
OSHKOSH        SUNNY     64  34  32 VRB6      30.24R
6HR MIN TEMP:  47; 6HR MAX TEMP:  64;

$$

WIZ032>034-041-042-053>061-221900-
SOUTHWEST WISCONSIN

CITY           SKY/WX    TMP DP  RH WIND       PRES   REMARKS
LA CROSSE      SUNNY     72  33  24 NW7       30.21S
6HR MIN TEMP:  48; 6HR MAX TEMP:  72;

SPARTA         SUNNY     69  31  24 CALM      30.22F
6HR MIN TEMP:  38; 6HR MAX TEMP:  69;

VIROQUA        SUNNY     69  33  26 CALM      30.22S
6HR MIN TEMP:  48; 6HR MAX TEMP:  69;

BOSCOBEL       SUNNY     72  34  24 VRB3      30.21S
6HR MIN TEMP:  44; 6HR MAX TEMP:  73;

PRAIRIE DU CHI SUNNY     70  33  25 CALM      30.21S
6HR MIN TEMP:  44; 6HR MAX TEMP:  71;

PLATTEVILLE    SUNNY     69  34  27 NW5       30.22S
6HR MIN TEMP:  49; 6HR MAX TEMP:  70;

$$

WIZ056-057-062-063-064-067-068-221900-
SOUTH CENTRAL WISCONSIN

CITY           SKY/WX    TMP DP  RH WIND       PRES   REMARKS
REEDSBURG      SUNNY     67  37  32 CALM      30.22S
6HR MIN TEMP:  44; 6HR MAX TEMP:  68;

BARABOO/DELLS  SUNNY     67  30  25 CALM      30.22F
6HR MIN TEMP:  45; 6HR MAX TEMP:  67;

LONE ROCK      SUNNY     71  35  26 VRB5      30.21F
6HR MIN TEMP:  45; 6HR MAX TEMP:  72;

MINERAL POINT  SUNNY     70  30  23 SW5       30.22S
MADISON        SUNNY     67  32  27 S7        30.23S
6HR MIN TEMP:  46; 6HR MAX TEMP:  67;

MIDDLETON      SUNNY     69  28  21 CALM      30.23S
6HR MIN TEMP:  49; 6HR MAX TEMP:  69;

WATERTOWN      SUNNY     65  35  32 CALM      30.23S
6HR MIN TEMP:  46; 6HR MAX TEMP:  66;

MONROE         SUNNY     68  36  30 N5        30.22S
JANESVILLE     SUNNY     70  30  23 CALM      30.21F
$$

WIZ051-052-058>065-066-070>072-221900-
SOUTHEAST WISCONSIN

CITY           SKY/WX    TMP DP  RH WIND       PRES   REMARKS
MILWAUKEE      SUNNY     55  32  41 NE8       30.27S
6HR MIN TEMP:  48; 6HR MAX TEMP:  55;

WAUKESHA       SUNNY     63  34  34 SE6       30.26R
MILWAUKEE/TIMM SUNNY     59  23  25 E5        30.27R
RACINE         SUNNY     57  30  35 NE9       30.28S
6HR MIN TEMP:  48; 6HR MAX TEMP:  57;

BURLINGTON     SUNNY     63  32  30 E3        30.24S
6HR MIN TEMP:  44; 6HR MAX TEMP:  64;

KENOSHA        SUNNY     59  31  34 E7        30.27R
6HR MIN TEMP:  48; 6HR MAX TEMP:  59;

FOND DU LAC    SUNNY     67  35  30 NW7       30.24S
6HR MIN TEMP:  46; 6HR MAX TEMP:  67;

SHEBOYGAN      SUNNY     58  32  37 SE10G22   30.26R
6HR MIN TEMP:  46; 6HR MAX TEMP:  60;

WEST BEND      SUNNY     63  30  29 CALM      30.25S
JUNEAU         SUNNY     63  33  32 W5        30.24F
6HR MIN TEMP:  46; 6HR MAX TEMP:  64;

$$

LSZ147-162-221900-
LAKE SUPERIOR

STATION/POSITION TIME  TEMP    WIND        PRES    WAVE
                       AIR SEA DIR/SP/G            HT/PER
                 (UTC) (F)     (DEG/KT/KT) (MB)    (FT/S)
W MID LAKE BUOY  1750   38 37  120/  6/  6   N/A     0
DEVILS ISLAND    1800   43     100/  4/  5   N/A
PORT WING        1740   47      30/  6/  7   N/A
SAXON HARBOR     1700   54        CALM       N/A
$$

LMZ867-665-643>646-221900-
LAKE MICHIGAN

STATION/POSITION TIME  TEMP    WIND        PRES    WAVE
                       AIR SEA DIR/SP/G            HT/PER
                 (UTC) (F)     (DEG/KT/KT) (MB)    (FT/S)
CHAMBERS ISLAND  1700   50      70/  6/  9   N/A


USA.gov is the U.S. government's official web portal to all federal, state and local government web resources and services.